When you browse on this site, cookies collect data to enhance your experience and personalize the content and advertising you see.
Visit our Privacy Policy to learn more. By continuing to use the site, you agree to this use of cookies and data.
  • Em Portugal
  • Lista de países
  • Para 7 dias
  • Temperatura da água
  • Mapa do tempo
  • Widgets de tempo
  • user-avatar
    Iniciar Sessão

    Previsão horária em Igls

    Hoje, 25 Fevereiro, Terça-feira

    Tempo Temperatura Precipitação Vento Pressão Humidade
    00:00 +6°C° 0 mm 2 m/s 681 mmHg 73%
    01:00 +5°C° 0 mm 2 m/s 680 mmHg 71%
    02:00 +5°C° 0 mm 2 m/s 680 mmHg 72%
    03:00 +5°C° 0 mm 2 m/s 679 mmHg 73%
    04:00 +5°C° 0 mm 2 m/s 679 mmHg 75%
    05:00 +5°C° 0 mm 2 m/s 678 mmHg 75%
    06:00 +4°C° 0 mm 2 m/s 678 mmHg 76%
    07:00 +4°C° 0 mm 2 m/s 678 mmHg 77%
    08:00 +5°C° 0 mm 2 m/s 678 mmHg 78%
    09:00 +8°C° 0 mm 1 m/s 678 mmHg 78%
    10:00 +9°C° 0 mm 1 m/s 678 mmHg 79%
    11:00 +9°C° 0 mm 1 m/s 677 mmHg 78%
    12:00 +10°C° 0 mm 1 m/s 677 mmHg 78%
    13:00 +10°C° 0 mm 1 m/s 676 mmHg 78%
    14:00 +10°C° 0 mm 1 m/s 676 mmHg 80%
    15:00 +10°C° 0 mm 1 m/s 675 mmHg 82%
    16:00 +9°C° 0 mm 1 m/s 675 mmHg 84%
    17:00 +8°C° 0.1 mm 1 m/s 674 mmHg 87%
    18:00 +7°C° 0.1 mm 1 m/s 674 mmHg 91%
    19:00 +6°C° 0.1 mm 1 m/s 674 mmHg 94%
    20:00 +6°C° 0.3 mm 1 m/s 673 mmHg 94%
    21:00 +6°C° 0.3 mm 1 m/s 673 mmHg 94%
    22:00 +4°C° 0.3 mm 2 m/s 672 mmHg 94%
    23:00 +5°C° 2.3 mm 1 m/s 672 mmHg 95%

    Amanhã, 26 Fevereiro, Quarta-feira

    Tempo Temperatura Precipitação Vento Pressão Humidade
    00:00 +5°C° 2.3 mm 1 m/s 672 mmHg 96%
    01:00 +4°C° 2.3 mm 1 m/s 671 mmHg 98%
    02:00 +4°C° 1.7 mm 1 m/s 671 mmHg 97%
    03:00 +2°C° 1.7 mm 2 m/s 670 mmHg 96%
    04:00 +2°C° 1.7 mm 2 m/s 669 mmHg 95%
    05:00 +1°C° 0.8 mm 2 m/s 669 mmHg 94%
    06:00 -1°C° 0.8 mm 2 m/s 669 mmHg 94%
    07:00 -3°C° 0.8 mm 2 m/s 669 mmHg 93%
    08:00 -2°C° 0.4 mm 2 m/s 669 mmHg 86%
    09:00 -1°C° 0.4 mm 2 m/s 669 mmHg 79%
    10:00 -1°C° 0.4 mm 2 m/s 669 mmHg 72%
    11:00 -1°C° 0.1 mm 3 m/s 669 mmHg 70%
    12:00 -2°C° 0.1 mm 4 m/s 670 mmHg 68%
    13:00 -1°C° 0.1 mm 4 m/s 670 mmHg 66%
    14:00 -2°C° 0.3 mm 4 m/s 670 mmHg 68%
    15:00 -3°C° 0.3 mm 4 m/s 670 mmHg 71%
    16:00 -4°C° 0.3 mm 3 m/s 671 mmHg 73%
    17:00 -5°C° 0.2 mm 3 m/s 671 mmHg 80%
    18:00 -5°C° 0.2 mm 2 m/s 672 mmHg 87%
    19:00 -6°C° 0.2 mm 2 m/s 673 mmHg 94%
    20:00 -5°C° 0.6 mm 2 m/s 673 mmHg 95%
    21:00 -5°C° 0.6 mm 2 m/s 674 mmHg 95%
    22:00 -5°C° 0.6 mm 2 m/s 675 mmHg 95%
    23:00 -5°C° 0.5 mm 2 m/s 676 mmHg 95%

    Depois de amanhã, 27 Fevereiro, Quinta-feira

    Tempo Temperatura Precipitação Vento Pressão Humidade
    00:00 -5°C° 0.5 mm 2 m/s 676 mmHg 95%
    01:00 -3°C° 0.5 mm 1 m/s 677 mmHg 95%
    02:00 -6°C° 0.1 mm 2 m/s 677 mmHg 94%
    03:00 -6°C° 0.1 mm 2 m/s 677 mmHg 94%
    04:00 -7°C° 0.1 mm 2 m/s 677 mmHg 93%
    05:00 -7°C° 0 mm 2 m/s 677 mmHg 91%
    06:00 -8°C° 0 mm 2 m/s 677 mmHg 88%
    07:00 -9°C° 0 mm 2 m/s 678 mmHg 86%
    08:00 -7°C° 0 mm 2 m/s 678 mmHg 79%
    09:00 -5°C° 0 mm 2 m/s 678 mmHg 73%
    10:00 -2°C° 0 mm 2 m/s 678 mmHg 67%
    11:00 -2°C° 0 mm 2 m/s 677 mmHg 65%
    12:00 -1°C° 0 mm 3 m/s 676 mmHg 63%
    13:00 -1°C° 0 mm 4 m/s 675 mmHg 62%
    14:00 -2°C° 0.3 mm 4 m/s 674 mmHg 66%
    15:00 -2°C° 0.3 mm 4 m/s 673 mmHg 70%
    16:00 -4°C° 0.3 mm 5 m/s 671 mmHg 74%
    17:00 -4°C° 0.7 mm 5 m/s 671 mmHg 78%
    18:00 -5°C° 0.7 mm 5 m/s 671 mmHg 83%
    19:00 -5°C° 0.7 mm 5 m/s 671 mmHg 88%
    20:00 -4°C° 0.2 mm 4 m/s 671 mmHg 88%
    21:00 -4°C° 0.2 mm 4 m/s 671 mmHg 88%
    22:00 -4°C° 0.2 mm 4 m/s 671 mmHg 88%
    23:00 -4°C° 0.4 mm 3 m/s 672 mmHg 89%

    28 Fevereiro, Sexta-feira

    Tempo Temperatura Precipitação Vento Pressão Humidade
    00:00 -4°C° 0.4 mm 3 m/s 673 mmHg 90%
    01:00 -4°C° 0.4 mm 3 m/s 674 mmHg 92%
    02:00 -4°C° 0.5 mm 3 m/s 675 mmHg 93%
    03:00 -5°C° 0.5 mm 3 m/s 676 mmHg 93%
    04:00 -5°C° 0.5 mm 3 m/s 676 mmHg 94%
    05:00 -6°C° 0.3 mm 3 m/s 677 mmHg 94%
    06:00 -7°C° 0.3 mm 3 m/s 678 mmHg 94%
    07:00 -6°C° 0.3 mm 2 m/s 679 mmHg 94%
    08:00 -5°C° 0 mm 2 m/s 680 mmHg 87%
    09:00 -3°C° 0 mm 2 m/s 681 mmHg 80%
    10:00 -2°C° 0 mm 2 m/s 682 mmHg 73%
    11:00 -1°C° 0 mm 2 m/s 682 mmHg 69%
    12:00 +1°C° 0 mm 2 m/s 682 mmHg 65%
    13:00 +3°C° 0 mm 1 m/s 682 mmHg 62%
    14:00 +3°C° 0 mm 1 m/s 682 mmHg 62%
    15:00 +3°C° 0 mm 1 m/s 682 mmHg 62%
    16:00 +3°C° 0 mm 1 m/s 682 mmHg 62%
    17:00 +1°C° 0 mm 1 m/s 682 mmHg 64%
    18:00 0°C° 0 mm 1 m/s 682 mmHg 66%
    19:00 -2°C° 0 mm 1 m/s 682 mmHg 69%
    20:00 -4°C° 0 mm 2 m/s 682 mmHg 67%
    21:00 -4°C° 0 mm 2 m/s 682 mmHg 66%
    22:00 -3°C° 0 mm 2 m/s 682 mmHg 65%
    23:00 -3°C° 0 mm 2 m/s 682 mmHg 68%

    29 Fevereiro, Sábado

    Tempo Temperatura Precipitação Vento Pressão Humidade
    00:00 -2°C° 0 mm 2 m/s 682 mmHg 71%
    01:00 -2°C° 0 mm 2 m/s 681 mmHg 73%
    02:00 -2°C° 0 mm 2 m/s 681 mmHg 75%
    03:00 -2°C° 0 mm 2 m/s 681 mmHg 76%
    04:00 -2°C° 0 mm 3 m/s 680 mmHg 77%
    05:00 -2°C° 0 mm 3 m/s 680 mmHg 76%
    06:00 -4°C° 0 mm 3 m/s 679 mmHg 75%
    07:00 -4°C° 0 mm 3 m/s 679 mmHg 74%
    08:00 -2°C° 0 mm 3 m/s 678 mmHg 75%
    09:00 0°C° 0 mm 3 m/s 678 mmHg 75%
    10:00 +1°C° 0 mm 3 m/s 678 mmHg 76%
    11:00 +2°C° 0 mm 3 m/s 677 mmHg 78%
    12:00 +1°C° 0 mm 4 m/s 677 mmHg 79%
    13:00 +3°C° 0 mm 4 m/s 676 mmHg 81%
    14:00 +3°C° 0 mm 4 m/s 676 mmHg 80%
    15:00 +3°C° 0 mm 4 m/s 675 mmHg 78%
    16:00 +1°C° 0 mm 4 m/s 674 mmHg 77%
    17:00 0°C° 0 mm 4 m/s 674 mmHg 78%
    18:00 -2°C° 0 mm 4 m/s 674 mmHg 80%
    19:00 -3°C° 0 mm 4 m/s 674 mmHg 81%
    20:00 -2°C° 0.1 mm 3 m/s 675 mmHg 84%
    21:00 -2°C° 0.1 mm 2 m/s 676 mmHg 87%
    22:00 0°C° 0.1 mm 1 m/s 676 mmHg 90%
    23:00 0°C° 0.4 mm 1 m/s 676 mmHg 92%

    1 Março, Domingo

    Tempo Temperatura Precipitação Vento Pressão Humidade
    00:00 0°C° 0.4 mm 1 m/s 676 mmHg 94%
    01:00 -1°C° 0.4 mm 0 m/s 676 mmHg 96%
    02:00 -1°C° 0.5 mm 0 m/s 676 mmHg 96%
    03:00 +1°C° 0.5 mm 1 m/s 676 mmHg 97%
    04:00 +1°C° 0.5 mm 1 m/s 676 mmHg 97%
    05:00 0°C° 0.4 mm 1 m/s 676 mmHg 97%
    06:00 0°C° 0.4 mm 1 m/s 676 mmHg 96%
    07:00 0°C° 0.4 mm 1 m/s 676 mmHg 96%
    08:00 +1°C° 0.2 mm 1 m/s 676 mmHg 94%
    09:00 +1°C° 0.2 mm 1 m/s 676 mmHg 92%
    10:00 +2°C° 0.2 mm 1 m/s 677 mmHg 90%
    11:00 +3°C° 0.1 mm 1 m/s 676 mmHg 90%
    12:00 +3°C° 0.1 mm 1 m/s 676 mmHg 90%
    13:00 +4°C° 0.1 mm 1 m/s 676 mmHg 89%
    14:00 +4°C° 0 mm 1 m/s 675 mmHg 87%
    15:00 +4°C° 0 mm 1 m/s 675 mmHg 86%
    16:00 +4°C° 0 mm 1 m/s 675 mmHg 84%
    17:00 +3°C° 0 mm 1 m/s 674 mmHg 85%
    18:00 -1°C° 0 mm 2 m/s 674 mmHg 87%
    19:00 -2°C° 0 mm 2 m/s 674 mmHg 89%
    20:00 -1°C° 0 mm 2 m/s 674 mmHg 89%
    21:00 -1°C° 0 mm 3 m/s 674 mmHg 89%
    22:00 0°C° 0 mm 3 m/s 674 mmHg 89%
    23:00 0°C° 0 mm 3 m/s 674 mmHg 89%
    Mostrar mais